Year,Month,Day,Hour,Minute,Value (Times are PST for temperature in C)
2015,06,28,00,00,19.70
2015,06,28,00,01,19.70
2015,06,28,00,02,19.70
2015,06,28,00,03,19.70
2015,06,28,00,04,19.70
2015,06,28,00,05,19.70
2015,06,28,00,06,19.70
2015,06,28,00,07,19.70
2015,06,28,00,08,19.60
2015,06,28,00,09,19.50
2015,06,28,00,10,19.40
2015,06,28,00,11,19.30
2015,06,28,00,12,19.20
2015,06,28,00,13,19.10
2015,06,28,00,14,19.00
2015,06,28,00,15,18.90
2015,06,28,00,16,18.80
2015,06,28,00,17,18.60
2015,06,28,00,18,18.50
2015,06,28,00,19,18.40
2015,06,28,00,20,18.30
2015,06,28,00,21,18.20
2015,06,28,00,22,18.10
2015,06,28,00,23,18.10
2015,06,28,00,24,18.00
2015,06,28,00,25,17.90
2015,06,28,00,26,17.90
2015,06,28,00,27,17.90
2015,06,28,00,28,17.90
2015,06,28,00,29,17.80
2015,06,28,00,30,17.80
2015,06,28,00,31,17.80
2015,06,28,00,32,17.80
2015,06,28,00,33,17.80
2015,06,28,00,34,17.80
2015,06,28,00,35,17.80
2015,06,28,00,36,17.80
2015,06,28,00,37,17.80
2015,06,28,00,38,17.80
2015,06,28,00,39,17.80
2015,06,28,00,40,17.80
2015,06,28,00,41,17.80
2015,06,28,00,42,17.80
2015,06,28,00,43,17.70
2015,06,28,00,44,17.70
2015,06,28,00,45,17.70
2015,06,28,00,46,17.70
2015,06,28,00,47,17.70
2015,06,28,00,48,17.70
2015,06,28,00,49,17.70
2015,06,28,00,50,17.70
2015,06,28,00,51,17.70
2015,06,28,00,52,17.70
2015,06,28,00,53,17.70
2015,06,28,00,54,17.60
2015,06,28,00,55,17.60
2015,06,28,00,56,17.60
2015,06,28,00,57,17.60
2015,06,28,00,58,17.60
2015,06,28,00,59,17.60
2015,06,28,01,00,17.60
2015,06,28,01,01,17.60
2015,06,28,01,02,17.60
2015,06,28,01,03,17.60
2015,06,28,01,04,17.60
2015,06,28,01,05,17.60
2015,06,28,01,06,17.60
2015,06,28,01,07,17.60
2015,06,28,01,08,17.60
2015,06,28,01,09,17.60
2015,06,28,01,10,17.60
2015,06,28,01,11,17.60
2015,06,28,01,12,17.60
2015,06,28,01,13,17.60
2015,06,28,01,14,17.60
2015,06,28,01,15,17.60
2015,06,28,01,16,17.60
2015,06,28,01,17,17.60
2015,06,28,01,18,17.60
2015,06,28,01,19,17.60
2015,06,28,01,20,17.60
2015,06,28,01,21,17.60
2015,06,28,01,22,17.60
2015,06,28,01,23,17.60
2015,06,28,01,24,17.60
2015,06,28,01,25,17.60
2015,06,28,01,26,17.60
2015,06,28,01,27,17.60
2015,06,28,01,28,17.60
2015,06,28,01,29,17.60
2015,06,28,01,30,17.60
2015,06,28,01,31,17.60
2015,06,28,01,32,17.60
2015,06,28,01,33,17.70
2015,06,28,01,34,17.70
2015,06,28,01,35,17.80
2015,06,28,01,36,17.80
2015,06,28,01,37,17.90
2015,06,28,01,38,17.90
2015,06,28,01,39,17.90
2015,06,28,01,40,17.90
2015,06,28,01,41,17.90
2015,06,28,01,42,17.90
2015,06,28,01,43,17.90
2015,06,28,01,44,17.90
2015,06,28,01,45,17.90
2015,06,28,01,46,17.90
2015,06,28,01,47,17.90
2015,06,28,01,48,17.90
2015,06,28,01,49,17.90
2015,06,28,01,50,17.90
2015,06,28,01,51,17.90
2015,06,28,01,52,17.90
2015,06,28,01,53,17.80
2015,06,28,01,54,17.80
2015,06,28,01,55,17.80
2015,06,28,01,56,17.80
2015,06,28,01,57,17.80
2015,06,28,01,58,17.80
2015,06,28,01,59,17.70
2015,06,28,02,00,17.70
2015,06,28,02,01,17.70
2015,06,28,02,02,17.70
2015,06,28,02,03,17.70
2015,06,28,02,04,17.70
2015,06,28,02,05,17.70
2015,06,28,02,06,17.70
2015,06,28,02,07,17.70
2015,06,28,02,08,17.70
2015,06,28,02,09,17.70
2015,06,28,02,10,17.70
2015,06,28,02,11,17.70
2015,06,28,02,12,17.70
2015,06,28,02,13,17.70
2015,06,28,02,14,17.70
2015,06,28,02,15,17.70
2015,06,28,02,16,17.60
2015,06,28,02,17,17.60
2015,06,28,02,18,17.60
2015,06,28,02,19,17.60
2015,06,28,02,20,17.60
2015,06,28,02,21,17.60
2015,06,28,02,22,17.60
2015,06,28,02,23,17.70
2015,06,28,02,24,17.70
2015,06,28,02,25,17.60
2015,06,28,02,26,17.60
2015,06,28,02,27,17.60
2015,06,28,02,28,17.60
2015,06,28,02,29,17.50
2015,06,28,02,30,17.40
2015,06,28,02,31,17.40
2015,06,28,02,32,17.40
2015,06,28,02,33,17.30
2015,06,28,02,34,17.30
2015,06,28,02,35,17.30
2015,06,28,02,36,17.30
2015,06,28,02,37,17.30
2015,06,28,02,38,17.20
2015,06,28,02,39,17.20
2015,06,28,02,40,17.20
2015,06,28,02,41,17.20
2015,06,28,02,42,17.20
2015,06,28,02,43,17.10
2015,06,28,02,44,17.10
2015,06,28,02,45,17.10
2015,06,28,02,46,17.10
2015,06,28,02,47,17.00
2015,06,28,02,48,17.00
2015,06,28,02,49,17.00
2015,06,28,02,50,17.00
2015,06,28,02,51,17.00
2015,06,28,02,52,17.00
2015,06,28,02,53,17.00
2015,06,28,02,54,17.10
2015,06,28,02,55,17.10
2015,06,28,02,56,17.10
2015,06,28,02,57,17.00
2015,06,28,02,58,17.00
2015,06,28,02,59,17.00
2015,06,28,03,00,17.10
2015,06,28,03,01,17.10
2015,06,28,03,02,17.20
2015,06,28,03,03,17.30
2015,06,28,03,04,17.30
2015,06,28,03,05,17.30
2015,06,28,03,06,17.30
2015,06,28,03,07,17.40
2015,06,28,03,08,17.40
2015,06,28,03,09,17.40
2015,06,28,03,10,17.40
2015,06,28,03,11,17.40
2015,06,28,03,12,17.30
2015,06,28,03,13,17.30
2015,06,28,03,14,17.30
2015,06,28,03,15,17.30
2015,06,28,03,16,17.30
2015,06,28,03,17,17.30
2015,06,28,03,18,17.30
2015,06,28,03,19,17.30
2015,06,28,03,20,17.30
2015,06,28,03,21,17.30
2015,06,28,03,22,17.20
2015,06,28,03,23,17.20
2015,06,28,03,24,17.20
2015,06,28,03,25,17.20
2015,06,28,03,26,17.20
2015,06,28,03,27,17.20
2015,06,28,03,28,17.20
2015,06,28,03,29,17.10
2015,06,28,03,30,17.10
2015,06,28,03,31,17.10
2015,06,28,03,32,17.10
2015,06,28,03,33,17.10
2015,06,28,03,34,17.10
2015,06,28,03,35,17.10
2015,06,28,03,36,17.10
2015,06,28,03,37,17.00
2015,06,28,03,38,17.00
2015,06,28,03,39,17.00
2015,06,28,03,40,17.00
2015,06,28,03,41,17.00
2015,06,28,03,42,17.00
2015,06,28,03,43,17.00
2015,06,28,03,44,17.00
2015,06,28,03,45,17.00
2015,06,28,03,46,17.00
2015,06,28,03,47,17.00
2015,06,28,03,48,16.90
2015,06,28,03,49,16.90
2015,06,28,03,50,16.80
2015,06,28,03,51,16.70
2015,06,28,03,52,16.70
2015,06,28,03,53,16.60
2015,06,28,03,54,16.50
2015,06,28,03,55,16.40
2015,06,28,03,56,16.40
2015,06,28,03,57,16.30
2015,06,28,03,58,16.30
2015,06,28,03,59,16.20
2015,06,28,04,00,16.20
2015,06,28,04,01,16.20
2015,06,28,04,02,16.10
2015,06,28,04,03,16.10
2015,06,28,04,04,16.10
2015,06,28,04,05,16.10
2015,06,28,04,06,16.10
2015,06,28,04,07,16.10
2015,06,28,04,08,16.10
2015,06,28,04,09,16.10
2015,06,28,04,10,16.10
2015,06,28,04,11,16.00
2015,06,28,04,12,15.90
2015,06,28,04,13,15.90
2015,06,28,04,14,15.90
2015,06,28,04,15,15.90
2015,06,28,04,16,15.90
2015,06,28,04,17,15.90
2015,06,28,04,18,15.90
2015,06,28,04,19,15.90
2015,06,28,04,20,16.00
2015,06,28,04,21,16.10
2015,06,28,04,22,16.10
2015,06,28,04,23,16.00
2015,06,28,04,24,15.90
2015,06,28,04,25,15.90
2015,06,28,04,26,15.90
2015,06,28,04,27,15.90
2015,06,28,04,28,15.90
2015,06,28,04,29,15.90
2015,06,28,04,30,15.90
2015,06,28,04,31,15.90
2015,06,28,04,32,15.90
2015,06,28,04,33,15.80
2015,06,28,04,34,15.80
2015,06,28,04,35,15.80
2015,06,28,04,36,15.80
2015,06,28,04,37,15.80
2015,06,28,04,38,15.80
2015,06,28,04,39,15.80
2015,06,28,04,40,15.80
2015,06,28,04,41,15.80
2015,06,28,04,42,15.80
2015,06,28,04,43,15.80
2015,06,28,04,44,15.80
2015,06,28,04,45,15.80
2015,06,28,04,46,15.80
2015,06,28,04,47,15.80
2015,06,28,04,48,15.80
2015,06,28,04,49,15.70
2015,06,28,04,50,15.70
2015,06,28,04,51,15.60
2015,06,28,04,52,15.60
2015,06,28,04,53,15.60
2015,06,28,04,54,15.60
2015,06,28,04,55,15.60
2015,06,28,04,56,15.50
2015,06,28,04,57,15.50
2015,06,28,04,58,15.50
2015,06,28,04,59,15.50
2015,06,28,05,00,15.50
2015,06,28,05,01,15.50
2015,06,28,05,02,15.40
2015,06,28,05,03,15.40
2015,06,28,05,04,15.40
2015,06,28,05,05,15.40
2015,06,28,05,06,15.40
2015,06,28,05,07,15.40
2015,06,28,05,08,15.40
2015,06,28,05,09,15.30
2015,06,28,05,10,15.30
2015,06,28,05,11,15.30
2015,06,28,05,12,15.30
2015,06,28,05,13,15.30
2015,06,28,05,14,15.30
2015,06,28,05,15,15.40
2015,06,28,05,16,15.40
2015,06,28,05,17,15.40
2015,06,28,05,18,15.40
2015,06,28,05,19,15.40
2015,06,28,05,20,15.40
2015,06,28,05,21,15.40
2015,06,28,05,22,15.40
2015,06,28,05,23,15.40
2015,06,28,05,24,15.40
2015,06,28,05,25,15.30
2015,06,28,05,26,15.30
2015,06,28,05,27,15.30
2015,06,28,05,28,15.40
2015,06,28,05,29,15.40
2015,06,28,05,30,15.40
2015,06,28,05,31,15.40
2015,06,28,05,32,15.40
2015,06,28,05,33,15.40
2015,06,28,05,34,15.40
2015,06,28,05,35,15.40
2015,06,28,05,36,15.40
2015,06,28,05,37,15.40
2015,06,28,05,38,15.40
2015,06,28,05,39,15.40
2015,06,28,05,40,15.50
2015,06,28,05,41,15.50
2015,06,28,05,42,15.50
2015,06,28,05,43,15.50
2015,06,28,05,44,15.50
2015,06,28,05,45,15.50
2015,06,28,05,46,15.60
2015,06,28,05,47,15.60
2015,06,28,05,48,15.60
2015,06,28,05,49,15.60
2015,06,28,05,50,15.60
2015,06,28,05,51,15.60
2015,06,28,05,52,15.60
2015,06,28,05,53,15.70
2015,06,28,05,54,15.70
2015,06,28,05,55,15.70
2015,06,28,05,56,15.70
2015,06,28,05,57,15.80
2015,06,28,05,58,15.80
2015,06,28,05,59,15.80
2015,06,28,06,00,15.90
2015,06,28,06,01,16.00
2015,06,28,06,02,16.10
2015,06,28,06,03,16.10
2015,06,28,06,04,16.10
2015,06,28,06,05,16.10
2015,06,28,06,06,16.20
2015,06,28,06,07,16.20
2015,06,28,06,08,16.20
2015,06,28,06,09,16.30
2015,06,28,06,10,16.30
2015,06,28,06,11,16.30
2015,06,28,06,12,16.30
2015,06,28,06,13,16.40
2015,06,28,06,14,16.40
2015,06,28,06,15,16.40
2015,06,28,06,16,16.40
2015,06,28,06,17,16.40
2015,06,28,06,18,16.50
2015,06,28,06,19,16.50
2015,06,28,06,20,16.60
2015,06,28,06,21,16.60
2015,06,28,06,22,16.60
2015,06,28,06,23,16.60
2015,06,28,06,24,16.60
2015,06,28,06,25,16.70
2015,06,28,06,26,16.70
2015,06,28,06,27,16.70
2015,06,28,06,28,16.70
2015,06,28,06,29,16.70
2015,06,28,06,30,16.70
2015,06,28,06,31,16.50
2015,06,28,06,32,16.40
2015,06,28,06,33,16.40
2015,06,28,06,34,16.40
2015,06,28,06,35,16.30
2015,06,28,06,36,16.20
2015,06,28,06,37,16.00
2015,06,28,06,38,15.90
2015,06,28,06,39,15.80
2015,06,28,06,40,15.70
2015,06,28,06,41,15.70
2015,06,28,06,42,15.60
2015,06,28,06,43,15.60
2015,06,28,06,44,15.50
2015,06,28,06,45,15.50
2015,06,28,06,46,15.40
2015,06,28,06,47,15.40
2015,06,28,06,48,15.40
2015,06,28,06,49,15.40
2015,06,28,06,50,15.30
2015,06,28,06,51,15.30
2015,06,28,06,52,15.30
2015,06,28,06,53,15.30
2015,06,28,06,54,15.30
2015,06,28,06,55,15.30
2015,06,28,06,56,15.30
2015,06,28,06,57,15.30
2015,06,28,06,58,15.30
2015,06,28,06,59,15.20
2015,06,28,07,00,15.20
2015,06,28,07,01,15.20
2015,06,28,07,02,15.20
2015,06,28,07,03,15.20
2015,06,28,07,04,15.20
2015,06,28,07,05,15.20
2015,06,28,07,06,15.20
2015,06,28,07,07,15.30
2015,06,28,07,08,15.30
2015,06,28,07,09,15.30
2015,06,28,07,10,15.30
2015,06,28,07,11,15.30
2015,06,28,07,12,15.30
2015,06,28,07,13,15.30
2015,06,28,07,14,15.40
2015,06,28,07,15,15.40
2015,06,28,07,16,15.40
2015,06,28,07,17,15.40
2015,06,28,07,18,15.50
2015,06,28,07,19,15.50
2015,06,28,07,20,15.50
2015,06,28,07,21,15.60
2015,06,28,07,22,15.60
2015,06,28,07,23,15.70
2015,06,28,07,24,15.70
2015,06,28,07,25,15.80
2015,06,28,07,26,15.80
2015,06,28,07,27,15.90
2015,06,28,07,28,16.00
2015,06,28,07,29,16.10
2015,06,28,07,30,16.10
2015,06,28,07,31,16.20
2015,06,28,07,32,16.30
2015,06,28,07,33,16.30
2015,06,28,07,34,16.40
2015,06,28,07,35,16.40
2015,06,28,07,36,16.60
2015,06,28,07,37,16.60
2015,06,28,07,38,16.70
2015,06,28,07,39,16.70
2015,06,28,07,40,16.70
2015,06,28,07,41,16.80
2015,06,28,07,42,16.90
2015,06,28,07,43,17.00
2015,06,28,07,44,17.00
2015,06,28,07,45,17.20
2015,06,28,07,46,17.30
2015,06,28,07,47,17.30
2015,06,28,07,48,17.40
2015,06,28,07,49,17.40
2015,06,28,07,50,17.50
2015,06,28,07,51,17.60
2015,06,28,07,52,17.60
2015,06,28,07,53,17.70
2015,06,28,07,54,17.70
2015,06,28,07,55,17.70
2015,06,28,07,56,17.70
2015,06,28,07,57,17.70
2015,06,28,07,58,17.60
2015,06,28,07,59,17.60
2015,06,28,08,00,17.70
2015,06,28,08,01,17.70
2015,06,28,08,02,17.70
2015,06,28,08,03,17.80
2015,06,28,08,04,17.80
2015,06,28,08,05,17.80
2015,06,28,08,06,17.90
2015,06,28,08,07,17.90
2015,06,28,08,08,17.90
2015,06,28,08,09,18.00
2015,06,28,08,10,18.10
2015,06,28,08,11,18.10
2015,06,28,08,12,18.20
2015,06,28,08,13,18.20
2015,06,28,08,14,18.30
2015,06,28,08,15,18.40
2015,06,28,08,16,18.50
2015,06,28,08,17,18.50
2015,06,28,08,18,18.60
2015,06,28,08,19,18.70
2015,06,28,08,20,18.80
2015,06,28,08,21,18.90
2015,06,28,08,22,19.00
2015,06,28,08,23,19.10
2015,06,28,08,24,19.20
2015,06,28,08,25,19.40
2015,06,28,08,26,19.50
2015,06,28,08,27,19.60
2015,06,28,08,28,19.80
2015,06,28,08,29,19.90
2015,06,28,08,30,20.00
2015,06,28,08,31,20.20
2015,06,28,08,32,20.20
2015,06,28,08,33,20.20
2015,06,28,08,34,20.20
2015,06,28,08,35,20.20
2015,06,28,08,36,20.20
2015,06,28,08,37,20.20
2015,06,28,08,38,20.20
2015,06,28,08,39,20.20
2015,06,28,08,40,20.20
2015,06,28,08,41,20.20
2015,06,28,08,42,20.20
2015,06,28,08,43,20.20
2015,06,28,08,44,20.20
2015,06,28,08,45,20.10
2015,06,28,08,46,20.10
2015,06,28,08,47,20.10
2015,06,28,08,48,20.00
2015,06,28,08,49,19.90
2015,06,28,08,50,19.90
2015,06,28,08,51,19.90
2015,06,28,08,52,19.90
2015,06,28,08,53,20.00
2015,06,28,08,54,20.10
2015,06,28,08,55,20.10
2015,06,28,08,56,20.10
2015,06,28,08,57,20.20
2015,06,28,08,58,20.20
2015,06,28,08,59,20.30
2015,06,28,09,00,20.40
2015,06,28,09,01,20.50
2015,06,28,09,02,20.60
2015,06,28,09,03,20.70
2015,06,28,09,04,20.80
2015,06,28,09,05,20.90
2015,06,28,09,06,21.10
2015,06,28,09,07,21.30
2015,06,28,09,08,21.50
2015,06,28,09,09,21.60
2015,06,28,09,10,21.70
2015,06,28,09,11,21.80
2015,06,28,09,12,21.80
2015,06,28,09,13,21.80
2015,06,28,09,14,21.70
2015,06,28,09,15,21.50
2015,06,28,09,16,21.30
2015,06,28,09,17,21.10
2015,06,28,09,18,21.00
2015,06,28,09,19,20.80
2015,06,28,09,20,20.50
2015,06,28,09,21,20.30
2015,06,28,09,22,20.10
2015,06,28,09,23,19.90
2015,06,28,09,24,19.80
2015,06,28,09,25,19.70
2015,06,28,09,26,19.60
2015,06,28,09,27,19.50
2015,06,28,09,28,19.40
2015,06,28,09,29,19.20
2015,06,28,09,30,18.90
2015,06,28,09,31,18.70
2015,06,28,09,32,18.60
2015,06,28,09,33,18.50
2015,06,28,09,34,18.50
2015,06,28,09,35,18.50
2015,06,28,09,36,18.40
2015,06,28,09,37,18.40
2015,06,28,09,38,18.40
2015,06,28,09,39,18.40
2015,06,28,09,40,18.40
2015,06,28,09,41,18.40
2015,06,28,09,42,18.40
2015,06,28,09,43,18.50
2015,06,28,09,44,18.50
2015,06,28,09,45,18.50
2015,06,28,09,46,18.60
2015,06,28,09,47,18.60
2015,06,28,09,48,18.70
2015,06,28,09,49,18.80
2015,06,28,09,50,18.80
2015,06,28,09,51,18.80
2015,06,28,09,52,18.80
2015,06,28,09,53,18.80
2015,06,28,09,54,18.70
2015,06,28,09,55,18.70
2015,06,28,09,56,18.60
2015,06,28,09,57,18.60
2015,06,28,09,58,18.50
2015,06,28,09,59,18.60
2015,06,28,10,00,18.60
2015,06,28,10,01,18.70
2015,06,28,10,02,18.70
2015,06,28,10,03,18.60
2015,06,28,10,04,18.60
2015,06,28,10,05,18.60
2015,06,28,10,06,18.60
2015,06,28,10,07,18.60
2015,06,28,10,08,18.50
2015,06,28,10,09,18.50
2015,06,28,10,10,18.40
2015,06,28,10,11,18.30
2015,06,28,10,12,18.30
2015,06,28,10,13,18.30
2015,06,28,10,14,18.20
2015,06,28,10,15,18.20
2015,06,28,10,16,18.20
2015,06,28,10,17,18.20
2015,06,28,10,18,18.10
2015,06,28,10,19,18.10
2015,06,28,10,20,18.00
2015,06,28,10,21,17.90
2015,06,28,10,22,17.90
2015,06,28,10,23,17.80
2015,06,28,10,24,17.80
2015,06,28,10,25,17.80
2015,06,28,10,26,17.80
2015,06,28,10,27,17.80
2015,06,28,10,28,17.80
2015,06,28,10,29,17.80
2015,06,28,10,30,17.80
2015,06,28,10,31,17.80
2015,06,28,10,32,17.80
2015,06,28,10,33,17.80
2015,06,28,10,34,17.90
2015,06,28,10,35,17.90
2015,06,28,10,36,17.90
2015,06,28,10,37,17.90
2015,06,28,10,38,17.80
2015,06,28,10,39,17.70
2015,06,28,10,40,17.70
2015,06,28,10,41,17.70
2015,06,28,10,42,17.70
2015,06,28,10,43,17.60
2015,06,28,10,44,17.60
2015,06,28,10,45,17.60
2015,06,28,10,46,17.60
2015,06,28,10,47,17.60
2015,06,28,10,48,17.60
2015,06,28,10,49,17.60
2015,06,28,10,50,17.60
2015,06,28,10,51,17.70
2015,06,28,10,52,17.70
2015,06,28,10,53,17.70
2015,06,28,10,54,17.80
2015,06,28,10,55,17.80
2015,06,28,10,56,17.80
2015,06,28,10,57,17.80
2015,06,28,10,58,17.80
2015,06,28,10,59,17.90
2015,06,28,11,00,17.90
2015,06,28,11,01,17.90
2015,06,28,11,02,17.90
2015,06,28,11,03,17.90
2015,06,28,11,04,17.90
2015,06,28,11,05,17.90
2015,06,28,11,06,17.90
2015,06,28,11,07,17.90
2015,06,28,11,08,17.90
2015,06,28,11,09,17.90
2015,06,28,11,10,17.90
2015,06,28,11,11,18.10
2015,06,28,11,12,18.10
2015,06,28,11,13,18.10
2015,06,28,11,14,18.10
2015,06,28,11,15,18.10
2015,06,28,11,16,18.20
2015,06,28,11,17,18.20
2015,06,28,11,18,18.20
2015,06,28,11,19,18.20
2015,06,28,11,20,18.30
2015,06,28,11,21,18.40
2015,06,28,11,22,18.50
2015,06,28,11,23,18.50
2015,06,28,11,24,18.60
2015,06,28,11,25,18.70
2015,06,28,11,26,18.90
2015,06,28,11,27,19.00
2015,06,28,11,28,19.10
2015,06,28,11,29,19.20
2015,06,28,11,30,19.30
2015,06,28,11,31,19.40
2015,06,28,11,32,19.50
2015,06,28,11,33,19.60
2015,06,28,11,34,19.70
2015,06,28,11,35,19.80
2015,06,28,11,36,19.90
2015,06,28,11,37,20.00
2015,06,28,11,38,20.10
2015,06,28,11,39,20.30
2015,06,28,11,40,20.40
2015,06,28,11,41,20.50
2015,06,28,11,42,20.60
2015,06,28,11,43,20.70
2015,06,28,11,44,20.70
2015,06,28,11,45,20.80
2015,06,28,11,46,20.80
2015,06,28,11,47,20.80
2015,06,28,11,48,20.80
2015,06,28,11,49,20.70
2015,06,28,11,50,20.70
2015,06,28,11,51,20.70
2015,06,28,11,52,20.60
2015,06,28,11,53,20.60
2015,06,28,11,54,20.60
2015,06,28,11,55,20.50
2015,06,28,11,56,20.50
2015,06,28,11,57,20.50
2015,06,28,11,58,20.40
2015,06,28,11,59,20.40
2015,06,28,12,00,20.40
2015,06,28,12,01,20.50
2015,06,28,12,02,20.50
2015,06,28,12,03,20.50
2015,06,28,12,04,20.60
2015,06,28,12,05,20.70
2015,06,28,12,06,20.70
2015,06,28,12,07,20.70
2015,06,28,12,08,20.80
2015,06,28,12,09,20.80
2015,06,28,12,10,20.90
2015,06,28,12,11,20.90
2015,06,28,12,12,21.00
2015,06,28,12,13,21.10
2015,06,28,12,14,21.10
2015,06,28,12,15,21.20
2015,06,28,12,16,21.30
2015,06,28,12,17,21.30
2015,06,28,12,18,21.30
2015,06,28,12,19,21.30
2015,06,28,12,20,21.30
2015,06,28,12,21,21.30
2015,06,28,12,22,21.30
2015,06,28,12,23,21.30
2015,06,28,12,24,21.30
2015,06,28,12,25,21.30
2015,06,28,12,26,21.30
2015,06,28,12,27,21.30
2015,06,28,12,28,21.30
2015,06,28,12,29,21.30
2015,06,28,12,30,21.30
2015,06,28,12,31,21.30
2015,06,28,12,32,21.40
2015,06,28,12,33,21.50
2015,06,28,12,34,21.60
2015,06,28,12,35,21.60
2015,06,28,12,36,21.60
2015,06,28,12,37,21.60
2015,06,28,12,38,21.70
2015,06,28,12,39,21.70
2015,06,28,12,40,21.80
2015,06,28,12,41,21.90
2015,06,28,12,42,21.90
2015,06,28,12,43,22.00
2015,06,28,12,44,22.00
2015,06,28,12,45,22.10
2015,06,28,12,46,22.10
2015,06,28,12,47,22.20
2015,06,28,12,48,22.30
2015,06,28,12,49,22.30
2015,06,28,12,50,22.20
2015,06,28,12,51,22.10
2015,06,28,12,52,22.00
2015,06,28,12,53,21.80
2015,06,28,12,54,21.60
2015,06,28,12,55,21.50
2015,06,28,12,56,21.20
2015,06,28,12,57,20.90
2015,06,28,12,58,20.60
2015,06,28,12,59,20.40
2015,06,28,13,00,20.20
2015,06,28,13,01,20.10
2015,06,28,13,02,20.00
2015,06,28,13,03,19.90
2015,06,28,13,04,19.80
2015,06,28,13,05,19.80
2015,06,28,13,06,19.70
2015,06,28,13,07,19.70
2015,06,28,13,08,19.70
2015,06,28,13,09,19.70
2015,06,28,13,10,19.70
2015,06,28,13,11,19.70
2015,06,28,13,12,19.70
2015,06,28,13,13,19.70
2015,06,28,13,14,19.70
2015,06,28,13,15,19.70
2015,06,28,13,16,19.70
2015,06,28,13,17,19.70
2015,06,28,13,18,19.70
2015,06,28,13,19,19.70
2015,06,28,13,20,19.60
2015,06,28,13,21,19.60
2015,06,28,13,22,19.60
2015,06,28,13,23,19.60
2015,06,28,13,24,19.50
2015,06,28,13,25,19.50
2015,06,28,13,26,19.50
2015,06,28,13,27,19.60
2015,06,28,13,28,19.60
2015,06,28,13,29,19.70
2015,06,28,13,30,19.80
2015,06,28,13,31,19.90
2015,06,28,13,32,20.10
2015,06,28,13,33,20.20
2015,06,28,13,34,20.20
2015,06,28,13,35,20.30
2015,06,28,13,36,20.40
2015,06,28,13,37,20.50
2015,06,28,13,38,20.70
2015,06,28,13,39,20.80
2015,06,28,13,40,20.90
2015,06,28,13,41,21.00
2015,06,28,13,42,21.20
2015,06,28,13,43,21.30
2015,06,28,13,44,21.40
2015,06,28,13,45,21.50
2015,06,28,13,46,21.60
2015,06,28,13,47,21.70
2015,06,28,13,48,21.80
2015,06,28,13,49,21.90
2015,06,28,13,50,22.00
2015,06,28,13,51,22.10
2015,06,28,13,52,22.10
2015,06,28,13,53,22.20
2015,06,28,13,54,22.30
2015,06,28,13,55,22.50
2015,06,28,13,56,22.60
2015,06,28,13,57,22.60
2015,06,28,13,58,22.70
2015,06,28,13,59,22.80
2015,06,28,14,00,22.90
2015,06,28,14,01,22.90
2015,06,28,14,02,22.90
2015,06,28,14,03,22.90
2015,06,28,14,04,22.90
2015,06,28,14,05,22.90
2015,06,28,14,06,22.90
2015,06,28,14,07,22.90
2015,06,28,14,08,23.00
2015,06,28,14,09,23.10
2015,06,28,14,10,23.10
2015,06,28,14,11,23.20
2015,06,28,14,12,23.20
2015,06,28,14,13,23.20
2015,06,28,14,14,23.30
2015,06,28,14,15,23.30
2015,06,28,14,16,23.30
2015,06,28,14,17,23.40
2015,06,28,14,18,23.40
2015,06,28,14,19,23.40
2015,06,28,14,20,23.40
2015,06,28,14,21,23.50
2015,06,28,14,22,23.60
2015,06,28,14,23,23.60
2015,06,28,14,24,23.70
2015,06,28,14,25,23.70
2015,06,28,14,26,23.70
2015,06,28,14,27,23.70
2015,06,28,14,28,23.70
2015,06,28,14,29,23.70
2015,06,28,14,30,23.70
2015,06,28,14,31,23.70
2015,06,28,14,32,23.70
2015,06,28,14,33,23.60
2015,06,28,14,34,23.60
2015,06,28,14,35,23.70
2015,06,28,14,36,23.70
2015,06,28,14,37,23.70
2015,06,28,14,38,23.70
2015,06,28,14,39,23.70
2015,06,28,14,40,23.70
2015,06,28,14,41,23.70
2015,06,28,14,42,23.70
2015,06,28,14,43,23.70
2015,06,28,14,44,23.70
2015,06,28,14,45,23.70
2015,06,28,14,46,23.70
2015,06,28,14,47,23.70
2015,06,28,14,48,23.70
2015,06,28,14,49,23.70
2015,06,28,14,50,23.70
2015,06,28,14,51,23.70
2015,06,28,14,52,23.70
2015,06,28,14,53,23.70
2015,06,28,14,54,23.70
2015,06,28,14,55,23.70
2015,06,28,14,56,23.70
2015,06,28,14,57,23.70
2015,06,28,14,58,23.70
2015,06,28,14,59,23.70
2015,06,28,15,00,23.70
2015,06,28,15,01,23.70
2015,06,28,15,02,23.70
2015,06,28,15,03,23.40
2015,06,28,15,04,22.60
2015,06,28,15,05,21.90
2015,06,28,15,06,21.20
2015,06,28,15,07,20.90
2015,06,28,15,08,20.50
2015,06,28,15,09,20.20
2015,06,28,15,10,19.80
2015,06,28,15,11,19.40
2015,06,28,15,12,19.10
2015,06,28,15,13,18.90
2015,06,28,15,14,18.80
2015,06,28,15,15,18.70
2015,06,28,15,16,18.60
2015,06,28,15,17,18.50
2015,06,28,15,18,18.50
2015,06,28,15,19,18.40
2015,06,28,15,20,18.40
2015,06,28,15,21,18.40
2015,06,28,15,22,18.50
2015,06,28,15,23,18.50
2015,06,28,15,24,18.50
2015,06,28,15,25,18.60
2015,06,28,15,26,18.60
2015,06,28,15,27,18.70
2015,06,28,15,28,18.70
2015,06,28,15,29,18.80
2015,06,28,15,30,18.80
2015,06,28,15,31,18.80
2015,06,28,15,32,18.80
2015,06,28,15,33,18.90
2015,06,28,15,34,18.90
2015,06,28,15,35,18.90
2015,06,28,15,36,19.00
2015,06,28,15,37,19.10
2015,06,28,15,38,19.10
2015,06,28,15,39,19.20
2015,06,28,15,40,19.30
2015,06,28,15,41,19.40
2015,06,28,15,42,19.40
2015,06,28,15,43,19.50
2015,06,28,15,44,19.60
2015,06,28,15,45,19.80
2015,06,28,15,46,19.90
2015,06,28,15,47,20.00
2015,06,28,15,48,20.10
2015,06,28,15,49,20.20
2015,06,28,15,50,20.20
2015,06,28,15,51,20.20
2015,06,28,15,52,20.20
2015,06,28,15,53,20.20
2015,06,28,15,54,20.20
2015,06,28,15,55,20.10
2015,06,28,15,56,19.80
2015,06,28,15,57,19.60
2015,06,28,15,58,19.30
2015,06,28,15,59,19.10
2015,06,28,16,00,18.90
2015,06,28,16,01,18.70
2015,06,28,16,02,18.50
2015,06,28,16,03,18.30
2015,06,28,16,04,18.20
2015,06,28,16,05,18.10
2015,06,28,16,06,18.00
2015,06,28,16,07,18.00
2015,06,28,16,08,18.10
2015,06,28,16,09,18.10
2015,06,28,16,10,18.10
2015,06,28,16,11,18.20
2015,06,28,16,12,18.30
2015,06,28,16,13,18.40
2015,06,28,16,14,18.40
2015,06,28,16,15,18.50
2015,06,28,16,16,18.60
2015,06,28,16,17,18.60
2015,06,28,16,18,18.70
2015,06,28,16,19,18.70
2015,06,28,16,20,18.80
2015,06,28,16,21,18.80
2015,06,28,16,22,18.90
2015,06,28,16,23,18.90
2015,06,28,16,24,18.90
2015,06,28,16,25,18.90
2015,06,28,16,26,18.90
2015,06,28,16,27,18.90
2015,06,28,16,28,18.90
2015,06,28,16,29,18.90
2015,06,28,16,30,18.90
2015,06,28,16,31,19.00
2015,06,28,16,32,19.10
2015,06,28,16,33,19.10
2015,06,28,16,34,19.10
2015,06,28,16,35,19.10
2015,06,28,16,36,19.10
2015,06,28,16,37,19.10
2015,06,28,16,38,19.10
2015,06,28,16,39,19.20
2015,06,28,16,40,19.20
2015,06,28,16,41,19.30
2015,06,28,16,42,19.40
2015,06,28,16,43,19.40
2015,06,28,16,44,19.50
2015,06,28,16,45,19.60
2015,06,28,16,46,19.70
2015,06,28,16,47,19.70
2015,06,28,16,48,19.80
2015,06,28,16,49,19.90
2015,06,28,16,50,19.90
2015,06,28,16,51,20.00
2015,06,28,16,52,20.10
2015,06,28,16,53,20.20
2015,06,28,16,54,20.20
2015,06,28,16,55,20.30
2015,06,28,16,56,20.40
2015,06,28,16,57,20.40
2015,06,28,16,58,20.50
2015,06,28,16,59,20.50
2015,06,28,17,00,20.60
2015,06,28,17,01,20.70
2015,06,28,17,02,20.70
2015,06,28,17,03,20.80
2015,06,28,17,04,20.80
2015,06,28,17,05,20.80
2015,06,28,17,06,20.90
2015,06,28,17,07,20.90
2015,06,28,17,08,20.90
2015,06,28,17,09,21.00
2015,06,28,17,10,21.00
2015,06,28,17,11,21.10
2015,06,28,17,12,21.10
2015,06,28,17,13,21.20
2015,06,28,17,14,21.20
2015,06,28,17,15,21.20
2015,06,28,17,16,21.30
2015,06,28,17,17,21.30
2015,06,28,17,18,21.30
2015,06,28,17,19,21.30